Creek Data

    Home     View Charts     View Raw Data     Messages

ID Distance Battery Voltage Battery Current Internal Temp Internal Humidity External Temp Solar Input rssi snr Time Stamp Record
64771 14.9 3.81 0 54 49 49 5.1 -75 7 01/29/2026 12:45 PM 47533
64770 15.0 3.80 0 54 48 48 5.1 -76 8 01/29/2026 12:30 PM 47532
64769 15.0 3.81 0 54 48 49 5.1 -76 7 01/29/2026 12:15 PM 47531
64768 15.0 4.07 0 54 47 49 5.1 -76 7 01/29/2026 12:00 PM 47530
64767 15.0 3.80 0 54 47 51 5.1 -76 8 01/29/2026 11:45 AM 47529
64766 14.9 3.80 0 52 47 50 5.1 -76 8 01/29/2026 11:30 AM 47528
64765 14.9 3.81 0 51 47 48 5.1 -76 8 01/29/2026 11:15 AM 47527
64764 14.9 3.81 0 50 47 48 5.1 -75 8 01/29/2026 11:00 AM 47526
64763 14.9 3.91 0 49 47 47 5.1 -76 8 01/29/2026 10:45 AM 47525
64762 14.9 3.81 0 48 47 46 5.1 -77 8 01/29/2026 10:30 AM 47524
64761 14.9 3.81 0 47 47 46 5.1 -80 8 01/29/2026 10:15 AM 47523
64760 14.9 3.81 0 46 47 44 5.1 -88 7 01/29/2026 10:00 AM 47522
64759 14.9 3.81 0 46 46 44 5.1 -82 7 01/29/2026 09:45 AM 47521
64758 14.9 4.03 50 45 46 44 4.5 -80 7 01/29/2026 09:30 AM 47520
64757 14.9 4.09 26 43 46 43 4.5 -80 8 01/29/2026 09:15 AM 47519
64756 14.9 3.95 46 42 47 42 4.5 -80 7 01/29/2026 09:00 AM 47518
64755 14.9 4.06 25 41 46 41 4.5 -80 7 01/29/2026 08:45 AM 47517
64754 14.9 3.96 46 40 47 40 4.5 -80 8 01/29/2026 08:30 AM 47516
64753 14.9 3.88 15 39 47 39 4.5 -80 8 01/29/2026 08:15 AM 47515
64752 14.9 3.87 0 37 48 38 4.5 -81 8 01/29/2026 08:00 AM 47514
64751 14.8 3.67 0 35 49 36 4.5 -81 9 01/29/2026 07:45 AM 47513
64750 14.9 3.64 0 34 49 35 4.5 -83 8 01/29/2026 07:30 AM 47512
64749 14.9 3.60 -9 34 49 34 2 -84 9 01/29/2026 07:15 AM 47511
64748 14.9 3.76 -5 34 49 35 1 -84 8 01/29/2026 07:00 AM 47510
64747 14.9 3.61 -5 34 50 35 0 -80 9 01/29/2026 06:30 AM 47508